Temp
-14 -14 -14 -14 -15 -15 -15 -15 -15 -15 -15 -15 -15 -14 -14 -14 -14 -14 -14 -14 -14 -14 -14 -14 -14 -14 -14 -14 -14 -14 -14 -14 -14 -14 -14 -13 -13 -13 -13 -13 -13 -13
-14 -14 -14 -15 -15 -15 -15 -15 -15 -15 -15 -15 -15 -15 -15 -15 -15 -15 -15 -15 -15 -15 -15 -15 -15 -15 -14 -14 -14 -14 -14 -14 -14 -14 -14 -14 -14 -14 -13 -13 -13 -13
-15 -15 -15 -15 -15 -15 -15 -15 -15 -15 -15 -15 -15 -15 -15 -15 -15 -15 -15 -15 -15 -15 -15 -15 -15 -15 -15 -15 -15 -15 -14 -14 -14 -14 -14 -14 -14 -14 -14 -14 -13 -13
-15 -15 -15 -15 -15 -15 -15 -15 -15 -15 -15 -15 -15 -15 -15 -15 -15 -15 -15 -15 -15 -15 -15 -15 -15 -15 -15 -15 -15 -15 -15 -15 -15 -15 -14 -14 -14 -14 -14 -14 -14 -14
-15 -15 -15 -15 -15 -15 -15 -15 -15 -15 -15 -15 -15 -15 -15 -15 -15 -15 -15 -15 -15 -15 -15 -15 -15 -15 -15 -15 -15 -15 -15 -15 -15 -15 -15 -15 -15 -14 -14 -14 -14 -14
-15 -15 -15 -15 -15 -15 -15 -15 -16 -15 -15 -15 -15 -15 -15 -15 -15 -15 -15 -15 -15 -15 -16 -16 -16 -16 -15 -15 -15 -15 -15 -15 -15 -15 -15 -15 -15 -15 -14 -14 -14 -14
-15 -15 -15 -15 -15 -15 -15 -15 -16 -16 -16 -16 -15 -15 -15 -15 -15 -15 -15 -16 -16 -16 -16 -16 -16 -16 -16 -16 -15 -15 -15 -15 -15 -15 -15 -15 -15 -15 -15 -15 -14 -14
-15 -15 -15 -15 -15 -15 -15 -15 -15 -15 -16 -16 -16 -16 -16 -16 -16 -16 -16 -16 -16 -16 -16 -16 -16 -16 -16 -16 -16 -16 -15 -15 -15 -15 -15 -15 -15 -15 -15 -15 -15 -14
-15 -15 -15 -15 -15 -15 -15 -15 -15 -15 -16 -16 -16 -16 -16 -16 -16 -16 -16 -16 -16 -16 -16 -16 -16 -16 -16 -16 -16 -16 -16 -16 -16 -15 -15 -15 -15 -15 -15 -15 -15 -15
-15 -15 -15 -15 -15 -15 -15 -15 -15 -16 -16 -16 -16 -16 -16 -16 -16 -16 -16 -16 -16 -16 -16 -16 -16 -16 -16 -16 -16 -16 -16 -16 -16 -16 -16 -15 -15 -15 -15 -15 -15 -15
-15 -15 -15 -15 -15 -16 -16 -16 -16 -16 -16 -16 -16 -16 -16 -16 -16 -16 -16 -17 -17 -16 -16 -16 -16 -16 -16 -16 -16 -16 -16 -16 -16 -16 -16 -16 -15 -15 -15 -15 -15 -15
-15 -15 -15 -16 -16 -16 -16 -16 -16 -16 -16 -16 -16 -16 -16 -17 -17 -17 -17 -17 -17 -17 -16 -16 -16 -16 -16 -16 -16 -16 -16 -16 -16 -16 -16 -16 -15 -15 -15 -15 -15 -15
-15 -15 -16 -16 -16 -16 -16 -16 -16 -16 -17 -17 -17 -17 -17 -17 -17 -17 -17 -17 -17 -17 -17 -16 -16 -16 -16 -16 -16 -16 -16 -16 -16 -16 -16 -16 -16 -16 -16 -16 -16 -15
-16 -16 -16 -16 -16 -16 -16 -16 -17 -17 -17 -17 -17 -17 -17 -17 -17 -17 -17 -17 -17 -17 -17 -17 -17 -17 -17 -17 -16 -16 -16 -16 -16 -16 -16 -16 -16 -16 -16 -16 -16 -16
-16 -16 -16 -16 -16 -16 -17 -17 -17 -17 -17 -17 -17 -17 -17 -17 -17 -17 -17 -17 -17 -17 -17 -17 -17 -17 -17 -17 -17 -17 -17 -17 -17 -17 -17 -17 -17 -16 -16 -16 -16 -16
-16 -16 -16 -16 -16 -16 -17 -17 -17 -17 -17 -17 -17 -17 -17 -17 -17 -17 -17 -17 -17 -17 -17 -17 -17 -17 -17 -17 -17 -17 -17 -17 -17 -17 -17 -17 -17 -17 -17 -17 -17 -17
-16 -16 -16 -16 -16 -16 -17 -17 -17 -17 -17 -17 -17 -17 -17 -17 -17 -17 -17 -17 -17 -17 -17 -17 -17 -17 -17 -17 -17 -17 -17 -17 -17 -17 -17 -17 -17 -17 -17 -17 -17 -17
-16 -15 -16 -16 -16 -16 -17 -17 -17 -17 -17 -17 -17 -17 -17 -17 -17 -17 -17 -17 -17 -17 -17 -17 -17 -17 -17 -17 -17 -17 -17 -17 -17 -17 -17 -17 -17 -17 -17 -17 -18 -18
-16 -15 -16 -16 -16 -16 -17 -17 -17 -17 -17 -17 -17 -17 -17 -17 -17 -18 -18 -18 -18 -18 -18 -18 -18 -18 -18 -18 -18 -18 -18 -18 -18 -18 -18 -18 -18 -18 -18 -18 -18 -18
-16 -16 -16 -16 -17 -17 -17 -17 -17 -17 -18 -18 -18 -18 -18 -18 -18 -18 -18 -18 -18 -18 -18 -18 -18 -18 -18 -18 -18 -18 -18 -18 -18 -18 -18 -18 -18 -18 -18 -18 -18 -18
-16 -16 -17 -17 -17 -17 -17 -18 -18 -18 -18 -18 -18 -18 -18 -18 -18 -18 -18 -18 -18 -18 -18 -18 -18 -18 -18 -18 -18 -18 -18 -18 -18 -18 -18 -18 -18 -18 -18 -18 -18 -18
-17 -17 -17 -17 -17 -18 -18 -18 -18 -18 -18 -18 -18 -18 -18 -18 -18 -18 -18 -18 -18 -18 -18 -19 -19 -19 -19 -19 -19 -19 -19 -19 -19 -19 -19 -19 -19 -19 -19 -19 -19 -19
-17 -17 -17 -18 -18 -18 -18 -18 -18 -18 -18 -18 -18 -18 -18 -18 -18 -18 -18 -19 -19 -19 -19 -19 -19 -19 -19 -19 -19 -19 -19 -19 -19 -19 -19 -19 -19 -19 -19 -19 -19 -19
-17 -17 -18 -18 -18 -18 -18 -18 -18 -18 -18 -18 -18 -18 -18 -18 -19 -19 -19 -19 -19 -19 -19 -19 -19 -19 -19 -19 -19 -19 -19 -19 -19 -19 -19 -20 -20 -20 -20 -20 -20 -20
-18 -18 -18 -18 -18 -18 -18 -18 -18 -18 -18 -18 -19 -19 -19 -19 -19 -19 -19 -19 -19 -19 -19 -19 -19 -19 -19 -19 -19 -19 -19 -19 -20 -20 -20 -20 -20 -20 -20 -20 -20 -20
-18 -18 -18 -18 -18 -18 -18 -19 -19 -19 -19 -19 -19 -19 -19 -19 -19 -19 -19 -19 -19 -19 -19 -19 -19 -19 -19 -19 -19 -19 -20 -20 -20 -20 -20 -20 -20 -20 -20 -21 -21 -21
Height
5813 5813 5813 5812 5812 5811 5811 5810 5810 5809 5809 5808 5807 5807 5806 5805 5805 5804 5803 5802 5801 5800 5798 5797 5796 5794 5793 5792 5790 5789 5788 5786 5785 5784 5782 5781 5780 5779 5777 5776 5775 5774
5811 5810 5810 5810 5809 5809 5808 5807 5806 5806 5805 5805 5804 5803 5802 5802 5801 5800 5799 5798 5797 5796 5795 5793 5792 5791 5789 5788 5786 5785 5783 5782 5781 5779 5778 5777 5776 5774 5773 5772 5771 5770
5808 5808 5807 5807 5807 5806 5805 5804 5804 5803 5802 5801 5801 5800 5799 5798 5798 5797 5796 5795 5793 5792 5791 5789 5788 5787 5785 5783 5782 5780 5779 5777 5776 5775 5773 5772 5771 5770 5769 5767 5766 5765
5806 5805 5805 5804 5804 5803 5802 5802 5801 5800 5799 5798 5798 5797 5796 5795 5794 5794 5792 5791 5790 5788 5787 5785 5784 5782 5781 5779 5777 5776 5774 5773 5771 5770 5768 5767 5766 5765 5763 5762 5761 5760
5803 5802 5802 5801 5800 5800 5799 5798 5798 5797 5796 5795 5795 5794 5793 5792 5791 5790 5789 5788 5786 5785 5783 5781 5780 5778 5776 5775 5773 5771 5770 5768 5766 5765 5763 5762 5760 5759 5758 5757 5755 5754
5800 5800 5799 5798 5797 5796 5796 5795 5794 5794 5793 5792 5791 5790 5789 5789 5787 5786 5785 5784 5782 5781 5779 5777 5775 5774 5772 5770 5768 5766 5765 5763 5761 5760 5758 5756 5755 5754 5752 5751 5750 5749
5797 5797 5796 5795 5794 5793 5792 5791 5791 5790 5789 5788 5787 5787 5786 5785 5783 5782 5781 5779 5778 5776 5775 5773 5771 5769 5767 5766 5764 5762 5760 5758 5756 5755 5753 5751 5749 5748 5747 5745 5744 5743
5794 5794 5792 5792 5791 5790 5789 5788 5787 5786 5785 5785 5784 5783 5782 5781 5779 5778 5776 5775 5773 5772 5770 5768 5766 5764 5762 5761 5759 5757 5755 5753 5751 5749 5747 5746 5744 5742 5741 5739 5738 5737
5791 5790 5789 5788 5787 5786 5785 5784 5783 5782 5781 5780 5780 5779 5777 5776 5775 5774 5772 5771 5769 5767 5765 5763 5761 5759 5757 5755 5754 5752 5750 5748 5746 5744 5742 5740 5738 5737 5735 5733 5732 5730
5787 5785 5784 5783 5783 5782 5781 5780 5779 5778 5777 5776 5775 5774 5773 5772 5770 5769 5768 5766 5764 5762 5760 5758 5756 5754 5752 5750 5748 5746 5744 5742 5740 5738 5737 5735 5733 5731 5729 5727 5726 5724
5782 5781 5780 5779 5778 5777 5777 5776 5775 5774 5773 5772 5771 5770 5769 5767 5766 5764 5763 5761 5759 5757 5755 5753 5751 5749 5747 5745 5743 5741 5739 5737 5735 5733 5731 5729 5727 5725 5723 5721 5719 5717
5777 5776 5775 5775 5774 5773 5772 5772 5771 5770 5769 5768 5767 5766 5764 5763 5761 5760 5758 5756 5754 5752 5750 5748 5746 5744 5742 5740 5737 5735 5733 5731 5729 5727 5725 5722 5720 5718 5716 5714 5712 5710
5772 5772 5771 5770 5769 5769 5768 5767 5766 5766 5765 5764 5762 5761 5760 5759 5757 5755 5753 5751 5749 5747 5745 5743 5741 5739 5736 5734 5732 5730 5728 5725 5723 5721 5718 5716 5714 5711 5709 5707 5705 5703
5768 5767 5766 5766 5765 5764 5764 5763 5762 5761 5760 5759 5758 5757 5756 5754 5752 5750 5748 5746 5744 5742 5740 5738 5736 5734 5731 5729 5726 5724 5722 5720 5717 5715 5712 5710 5707 5705 5703 5700 5698 5696
5763 5762 5762 5761 5760 5760 5759 5758 5758 5757 5756 5755 5754 5752 5751 5749 5747 5746 5744 5742 5740 5737 5735 5733 5731 5729 5726 5724 5721 5719 5716 5714 5712 5710 5707 5704 5702 5700 5697 5694 5692 5689
5758 5758 5757 5757 5756 5755 5755 5754 5753 5752 5752 5750 5749 5748 5746 5745 5743 5741 5739 5737 5735 5732 5730 5728 5726 5723 5721 5718 5716 5714 5711 5709 5706 5704 5701 5699 5696 5694 5691 5688 5685 5683
5754 5753 5753 5752 5751 5751 5750 5749 5749 5748 5747 5746 5745 5744 5742 5741 5739 5737 5734 5732 5730 5728 5725 5723 5721 5718 5716 5713 5711 5708 5706 5703 5700 5698 5695 5692 5689 5686 5684 5681 5678 5675
5750 5749 5748 5747 5747 5746 5745 5745 5745 5744 5743 5742 5741 5740 5738 5736 5734 5732 5730 5728 5725 5723 5720 5718 5716 5713 5711 5708 5705 5703 5700 5697 5694 5691 5688 5685 5682 5679 5676 5674 5671 5668
5746 5745 5744 5744 5743 5743 5742 5742 5741 5740 5739 5738 5737 5736 5734 5732 5730 5728 5725 5723 5721 5718 5716 5713 5711 5708 5706 5703 5700 5697 5694 5691 5688 5685 5682 5679 5676 5673 5670 5667 5664 5661
5743 5742 5742 5741 5741 5740 5740 5739 5738 5737 5736 5735 5733 5732 5730 5728 5726 5723 5721 5719 5716 5714 5711 5709 5706 5703 5701 5698 5695 5692 5689 5686 5683 5679 5676 5673 5670 5667 5663 5660 5657 5654
5740 5739 5739 5738 5738 5737 5736 5735 5734 5733 5732 5731 5729 5727 5726 5724 5722 5719 5717 5714 5712 5710 5707 5704 5702 5699 5696 5693 5690 5687 5684 5681 5678 5675 5671 5668 5664 5661 5657 5654 5650 5647
5737 5736 5736 5735 5735 5734 5733 5732 5731 5729 5728 5726 5725 5723 5721 5720 5717 5715 5713 5711 5708 5706 5703 5701 5698 5695 5692 5689 5686 5683 5680 5677 5673 5670 5666 5662 5659 5655 5651 5647 5643 5639
5734 5733 5733 5732 5731 5730 5729 5728 5727 5725 5724 5722 5721 5719 5717 5715 5713 5711 5709 5707 5704 5702 5700 5697 5695 5692 5689 5686 5683 5679 5676 5673 5669 5665 5661 5657 5653 5650 5646 5641 5637 5632
5731 5730 5729 5729 5728 5727 5726 5724 5723 5722 5720 5719 5717 5715 5713 5711 5709 5707 5705 5703 5701 5699 5696 5694 5691 5689 5686 5683 5679 5676 5672 5668 5664 5660 5657 5653 5649 5644 5640 5636 5631 5626
5727 5727 5726 5725 5724 5723 5722 5720 5719 5718 5716 5715 5713 5711 5709 5707 5706 5704 5702 5700 5698 5695 5693 5691 5688 5685 5682 5679 5675 5672 5667 5664 5660 5656 5652 5648 5644 5640 5636 5631 5626 5621
5724 5724 5723 5722 5721 5719 5718 5717 5715 5714 5712 5711 5709 5707 5706 5704 5702 5700 5698 5696 5694 5692 5690 5687 5685 5682 5679 5675 5672 5668 5663 5659 5655 5651 5648 5644 5639 5635 5631 5626 5621 5615
Wind_Speed
20 21 21 22 23 24 25 26 27 27 27 27 28 29 29 29 29 29 29 29 29 30 30 31 31 32 33 33 34 35 35 35 35 35 36 36 37 38 38 38 37 37
22 22 23 23 24 26 27 27 28 29 29 30 30 31 32 32 32 31 31 31 32 32 32 32 32 33 33 34 34 35 36 36 37 37 37 37 38 38 39 39 39 39
23 24 25 26 27 28 28 29 30 31 31 32 33 33 34 34 34 34 33 33 34 34 35 35 34 34 34 35 35 36 36 37 38 38 38 38 38 39 39 40 40 40
25 26 28 28 29 30 30 31 32 32 33 34 34 35 35 35 35 35 35 35 35 36 36 36 36 36 36 36 37 37 37 38 38 39 40 40 40 40 40 41 41 42
26 27 28 29 31 32 32 32 33 33 34 35 35 36 36 36 36 36 36 36 37 37 38 38 38 38 38 38 38 38 38 39 39 40 40 41 41 41 41 42 43 43
26 27 28 30 30 31 33 33 34 34 35 35 36 37 37 37 37 37 38 38 38 39 40 40 40 40 40 39 39 39 39 39 40 40 40 41 41 41 41 42 43 44
25 26 27 28 29 29 31 32 33 34 35 36 37 37 38 38 38 38 39 40 40 40 41 42 42 41 40 40 39 39 39 39 39 40 40 40 41 41 41 42 42 43
25 27 28 28 28 29 30 31 33 34 35 36 37 37 38 38 39 40 41 41 41 42 43 43 42 41 40 40 39 39 39 39 39 39 39 40 41 41 42 42 42 43
29 29 30 31 31 31 32 32 33 34 35 36 37 37 38 39 40 41 42 42 43 43 44 44 42 41 41 40 40 39 39 39 39 39 40 40 41 41 42 43 43 44
30 31 32 32 33 33 33 33 34 35 35 36 37 37 39 40 42 43 43 43 44 44 44 43 42 41 41 41 41 40 40 40 41 41 41 42 42 42 43 43 44 44
31 32 32 32 32 33 33 34 34 35 35 36 37 38 40 42 43 43 44 44 44 44 43 42 41 41 41 41 41 41 42 42 43 43 43 44 44 44 44 45 45 46
32 33 33 33 32 32 33 34 34 35 35 36 38 40 41 42 43 44 44 44 43 42 41 41 41 42 42 42 42 43 43 44 45 45 45 45 45 45 45 45 46 46
33 33 33 33 33 33 33 33 34 35 36 37 39 40 41 42 43 43 43 42 41 41 41 41 41 42 42 43 43 44 45 45 45 45 45 45 45 45 45 46 46 47
33 33 32 32 33 33 33 33 34 35 37 38 39 40 42 42 42 42 41 40 40 40 41 41 41 42 43 44 44 45 45 45 45 44 44 45 45 45 45 46 46 47
34 33 33 33 34 34 34 34 35 36 37 38 40 40 41 40 40 39 39 39 40 40 40 41 42 42 43 43 43 44 44 44 44 43 43 43 44 44 44 45 46 47
34 34 34 35 35 35 35 35 36 37 38 38 39 38 38 38 38 38 38 39 39 40 41 41 42 43 43 43 43 43 43 43 43 43 43 43 43 43 44 45 46 47
34 35 36 36 35 35 36 36 37 37 37 36 35 35 36 36 37 37 37 38 39 40 41 41 42 42 42 42 42 42 42 42 42 42 43 43 44 44 45 45 46 47
33 34 34 34 35 36 36 35 34 33 32 32 33 34 35 35 36 36 37 38 39 39 40 40 41 41 41 41 41 41 42 42 42 43 43 44 45 45 45 46 46 47
30 27 26 27 30 31 30 29 29 29 30 31 32 33 34 34 35 35 36 37 38 39 39 39 40 40 40 40 40 41 41 42 42 43 43 44 44 45 45 46 46 47
28 23 22 23 24 25 26 26 27 28 29 30 31 32 33 33 34 35 36 36 37 37 38 38 38 39 39 39 40 40 41 42 42 42 43 43 44 44 45 46 47 48
25 22 21 22 22 23 24 25 26 28 29 30 30 31 32 33 34 34 35 35 36 36 36 37 37 37 38 38 39 40 40 41 41 42 42 43 43 44 46 47 48 49
23 20 20 20 21 23 24 25 26 27 28 29 30 31 32 33 33 33 33 34 34 35 35 35 35 36 37 38 38 39 39 40 40 41 42 42 43 44 45 46 48 49
21 20 19 20 21 22 24 24 25 26 27 28 30 31 32 32 32 32 32 33 33 33 34 34 35 35 36 37 37 38 39 39 40 40 41 42 43 43 44 45 47 49
19 19 20 21 22 22 23 24 24 26 27 29 29 30 30 30 31 31 31 32 32 32 33 33 34 35 35 36 37 37 38 39 39 40 40 41 41 42 43 45 47 49
19 19 20 21 22 22 23 23 25 26 27 28 29 29 29 30 30 30 31 31 31 32 33 33 34 34 35 35 36 37 38 39 39 39 39 40 40 41 42 44 46 49
19 20 20 21 21 22 23 24 25 27 27 28 28 28 29 29 30 30 30 31 31 32 33 33 34 34 35 35 36 37 38 38 38 39 39 40 40 41 42 44 47 48
Wind_Direction
269 272 276 280 284 285 287 288 290 292 293 295 296 297 298 300 301 302 302 302 302 301 301 299 298 296 294 293 292 292 292 292 293 293 293 293 292 291 289 288 287 286
273 275 279 283 286 287 288 289 290 292 294 296 298 299 301 302 302 303 304 304 305 305 304 302 300 298 296 294 293 292 291 291 291 290 290 290 290 290 289 288 287 286
275 277 281 285 286 287 287 288 289 291 293 294 296 298 300 301 301 302 303 304 305 306 305 303 302 300 298 296 295 293 292 291 290 289 289 288 288 288 288 287 287 286
277 281 284 285 285 285 284 285 286 288 290 292 294 296 297 298 299 300 302 303 305 305 305 303 302 301 299 297 296 294 293 292 291 290 289 289 288 287 287 287 286 285
282 284 285 285 285 283 282 282 283 285 288 290 291 293 294 296 297 299 301 302 304 305 304 303 302 302 300 298 297 295 294 292 291 290 289 289 288 287 287 286 286 285
284 284 284 285 285 283 280 279 281 283 285 287 289 291 293 294 296 298 300 301 303 303 303 302 302 301 300 298 297 296 294 293 292 291 290 289 288 287 286 286 285 285
285 284 284 285 286 285 282 280 280 281 283 285 287 289 291 293 295 297 298 300 301 302 301 301 301 300 299 298 297 296 295 295 294 293 292 290 289 288 287 286 284 284
287 285 284 285 287 288 286 283 281 281 282 283 285 287 289 291 293 294 296 298 299 300 300 301 301 300 299 298 298 298 297 296 295 294 293 292 290 289 287 286 284 283
289 287 286 285 285 285 285 283 282 281 281 282 284 286 288 289 291 292 295 297 299 301 301 302 301 300 300 300 300 299 299 297 296 294 293 292 291 289 288 286 285 283
291 290 287 285 283 282 282 281 281 280 280 281 283 285 286 288 290 292 295 297 300 301 302 302 302 301 301 301 301 300 299 298 297 295 294 293 291 290 289 287 286 284
291 289 286 284 282 281 280 280 279 279 279 281 283 284 285 287 290 293 296 298 300 301 301 301 302 302 302 301 301 300 299 298 297 296 295 294 292 291 289 288 287 285
288 286 284 282 281 281 280 280 279 279 280 281 282 283 286 288 291 294 297 299 299 300 300 301 301 301 301 301 300 300 299 298 297 296 295 294 293 292 291 289 288 286
287 285 284 284 283 281 281 280 279 279 279 280 282 284 287 290 293 295 297 298 298 299 300 301 301 301 300 300 300 299 299 298 298 297 296 296 295 294 293 292 290 289
286 285 285 285 284 281 280 279 278 277 278 280 283 286 288 291 293 295 296 297 298 300 301 301 301 300 300 300 300 300 299 299 298 298 297 296 296 295 294 293 292 290
285 284 284 284 283 281 279 278 278 278 280 282 284 287 290 292 293 294 295 298 299 300 300 300 300 300 300 300 300 299 299 298 297 296 295 295 294 293 293 292 292 291
285 284 284 283 282 280 278 277 277 278 280 282 285 288 290 291 293 295 297 298 299 299 299 300 300 300 300 299 299 298 298 297 296 296 296 296 296 295 295 295 294 293
286 285 283 281 280 278 276 276 276 277 280 283 286 288 290 292 294 296 297 298 298 299 299 299 299 300 300 300 299 299 299 299 300 300 300 300 300 300 299 299 298 297
287 285 282 280 279 277 276 275 276 279 282 285 288 289 291 293 295 296 297 297 298 298 299 299 300 300 301 301 301 302 303 303 304 304 304 304 304 303 302 302 301 299
288 289 286 284 282 279 278 278 280 282 285 287 289 290 292 294 295 296 296 297 298 299 299 300 301 302 302 303 304 305 306 307 307 307 307 306 306 305 304 303 303 302
288 286 283 282 280 279 279 281 282 285 286 288 289 291 292 294 295 296 296 297 299 300 301 302 303 304 305 306 307 308 308 309 308 308 307 307 306 306 306 305 305 304
287 283 279 278 278 279 281 283 285 286 287 288 290 292 293 294 295 296 297 299 300 301 302 304 305 307 308 308 309 309 309 309 309 308 308 308 308 308 308 307 307 306
284 282 280 281 282 283 284 285 286 287 289 290 292 293 294 295 296 297 299 300 302 303 305 306 307 308 309 310 310 310 310 310 310 311 311 311 311 311 310 310 309 309
282 283 284 285 285 285 286 287 288 289 291 292 292 293 294 296 297 299 301 302 303 305 306 307 308 309 310 310 311 311 312 312 313 313 314 314 314 314 314 314 314 314
283 286 286 286 286 287 289 290 291 291 291 291 293 294 295 297 299 301 302 303 304 305 306 307 308 309 310 312 313 314 315 316 316 316 317 317 317 318 318 318 318 318
286 287 288 289 290 291 292 291 291 291 292 293 294 296 298 300 301 302 303 303 304 306 307 308 309 311 312 314 316 318 319 319 319 319 319 320 320 321 321 321 322 322
288 290 292 292 293 293 292 292 292 293 294 295 297 298 300 301 301 302 303 304 305 307 308 310 311 312 315 317 319 321 321 321 322 322 322 323 323 323 324 324 325 325